User: anonymous   Login
Location: ????????
(55.5667°N, 37.5833°E)
Time: 23:39:32
(UTC+00:00)
Language:

Cosmos 1140 Rocket - Orbit

View from above orbital plane
View from above orbital plane
View from above satellite
View from above satellite

Ground track
Ground track

The orbit is defined by the following mean orbital elements,

1 11574U          26159.46600095 +.00000000 +00000-0 +78185-4 0 00007
2 11574  74.0696 283.0015 0014853  70.3178 289.9579 14.42400121    06
Epoch (UTC): 08 June 2026 11:11:02
Eccentricity: 0.0014853
inclination: 74.0696°
perigee height: 740 km
apogee height: 761 km
right ascension of ascending node: 283.0015°
argument of perigee: 70.3178°
revolutions per day: 14.42400121
mean anomaly at epoch: 289.9579°

The dashed part of the orbit path shows where the satellite is in the earth's shadow,  

DLR